CZ-3C DEB

基本信息
目录编号:
40819
目录名称:
CZ-3C DEB
国际标识:
2010-057AL
轨道中心:
EARTH
物体状态:
在轨
发射日期:
2010-10-31 UTC
轨道信息
数据来源: 国际轨道数据
星历时间: 2026-07-12T18:25:32+0800
半长轴: 24065.103km
偏心率: 0.7114148
轨道倾角: 20.728°
近地点辐角: 20.087°
升交点赤经: 333.364°
平近点角: 357.449°
近地点: 566.695km
远地点: 34807.237km
周期: 619.215分钟
每日圈数: 2.325526
详细信息
发射场:
XSC
轨道高度:
LEO
数据来源:
AOE Integration Group
参考系:
TEME
时间系统:
UTC
历元类型:
SGP4
2D轨道图
3D轨道图
轨道高度分析图
轨道倾角分析图
轨道综合分析图
查看轨道综合分析图